Regional Weather Roundup
Issued by NWS Grand Forks, ND

Home | Current Version | Previous Version | Graphics & Text | Print | Product List | Glossary On
Versions: 1 2 3 4 5 6 7 8 9 10 11 12 13 14 15 16 17 18 19 20 21 22 23 24 25 26 27 28 29 30 31 32 33 34 35 36 37 38 39 40 41 42 43 44 45 46 47 48 49 50
000
ASUS43 KFGF 251910
RWRFGF
PRAIRIE TO PINES  WEATHER ROUNDUP
NATIONAL WEATHER SERVICE EASTERN NORTH DAKOTA/GRAND FORKS ND
200 PM CDT SAT MAR 25 2017

 **SATELLITE DATA USED TO AUGMENT SKY COVER AT AUTOMATED STATIONS**
 *****  WEATHER ACROSS EASTERN NORTH DAKOTA  *****

CITY           SKY/WX    TMP DP  RH WIND       PRES   REMARKS
GRAND FORKS    CLOUDY    37  34  89 S17       30.13F
GRAND FRKS AFB CLOUDY    35  32  88 S15       30.13S
DEVILS LAKE    CLOUDY    36  31  82 S18       30.04F
FARGO          CLOUDY    38  33  82 S16       30.14F
WAHPETON ARPT  CLOUDY    36  30  80 SE10      30.15F
$$

 ***** WEATHER ACROSS CENTRAL AND WESTERN NORTH DAKOTA  *****

CITY           SKY/WX    TMP DP  RH WIND       PRES   REMARKS
BISMARCK       FAIR      43  34  70 SE13      30.00F
MINOT          PTSUNNY   44  34  67 S15G23    29.91F
JAMESTOWN      PTSUNNY   39  33  79 SE16G25   30.05F
MINOT AFB      CLOUDY    42  35  76 S17       29.90F
GARRISON         N/A     41  34  76 S14       29.94F
WILLISTON      CLOUDY    57  31  37 W13       29.89S
DICKINSON      FAIR      57  28  33 N9        29.89F
HETTINGER      FAIR      53  33  46 S7        29.93F
$$

 *****  OTHER AIRPORT OBSERVATIONS IN OUR AREA  *****

CITY           SKY/WX    TMP DP  RH WIND       PRES   REMARKS
WALHALLA       NOT AVBL
GRAFTON AIRPOR CLOUDY    37  34  87 S18       30.14F
VALLEY CITY AR CLOUDY    36  36 100 S14       30.10F
CANDO          NOT AVBL
CAVALIER APRT    N/A     36  32  87 S23       30.08F
GWINNER        CLOUDY    37  32  81 MISG      30.11S
SHEYENNE NWR     N/A     37  31  78 S10       29.95S
ROLLA          CLOUDY    32  32 100 S17       29.98F WCI  21
 ***** THE ABOVE OBSERVATIONS ARE NON NWS ARE NOT QUALITY
       CONTROLLED AND MAY MIS-REPORT RAIN FOR SNOW...
$$

  *****  WEATHER ACROSS NORTHERN MINNESOTA  *****

CITY           SKY/WX    TMP DP  RH WIND       PRES   REMARKS
FLAG ISLAND    CLOUDY    36  30  80 S12       30.17S
WARROAD        FAIR      43  32  65 S10       30.15F
ROSEAU         FAIR      43  32  65 S12       30.15S
HALLOCK        CLOUDY    37  34  87 S16       30.13F
THF RVR FALLS  PTSUNNY  N/A N/A N/A S15       30.14F
BAUDETTE       FAIR      42  28  57 SE13      30.14F
WASKISH        PTSUNNY   43  30  61 E13       30.16F
CROOKSTON      PTSUNNY   39  34  81 S15       30.14F
GREENBUSH NDAW   N/A     37  30  75 S10         N/A
$$
  *****  WEATHER ACROSS CENTRAL AND WEST MINNESOTA  *****

CITY           SKY/WX    TMP DP  RH WIND       PRES   REMARKS
FOSSTON        FAIR      43  36  75 SE6       30.13F
BEMIDJI        FAIR      40  29  65 E14       30.14F
PARK RAPIDS    FAIR      42  27  55 E9        30.13F
ELBOW LAKE     CLOUDY    36  30  79 SE8       30.13F
WADENA         FAIR      43  30  61 E13       30.12F
DETROIT LAKES  FAIR      43  32  65 SE13      30.13F
MOORHEAD       CLOUDY    37  30  75 S12       30.15S
FERGUS FALLS   CLOUDY    37  30  75 SE12      30.18F
MORRIS MN      PTSUNNY   39  32  75 E12G20    30.11F
STAPLES        FAIR      43  27  52 E10       30.14F
$$
  *****  WEATHER ELSEWHERE ACROSS MINNESOTA  *****

CITY           SKY/WX    TMP DP  RH WIND       PRES   REMARKS
DULUTH         CLOUDY    34  29  82 E20G25    30.21F WCI  23
INTRNTL FALLS  FAIR      38  26  62 SE14      30.20F
ELY            PTSUNNY   36  25  64 SE7       30.23F
CLOQUET        CLOUDY    34  28  80 E13G22    30.20F WCI  25
WHEATON        CLOUDY    37  30  75 SE12      30.15F
BRAINERD       CLOUDY    39  28  64 E12G20    30.16F
HIBBING        CLOUDY    34  27  75 E13G23    30.21F WCI  25
ALEXANDRIA     CLOUDY    39  30  70 E12       30.12F
SAINT CLOUD    CLOUDY    38  32  79 NE9       30.14F
MINNEAPOLIS    CLOUDY    42  32  67 NE16      30.12F
$$

  *****  WEATHER ACROSS SOUTH DAKOTA  *****

CITY           SKY/WX    TMP DP  RH WIND       PRES   REMARKS
SIOUX FALLS    CLOUDY    43  37  79 NE15      30.04F
BROOKINGS      CLOUDY    38  34  85 E12       30.06F
WATERTOWN      CLOUDY    36  32  85 E10       30.07F
HURON          CLOUDY    42  33  70 VRB7      30.07F
SISSETON         N/A     36  32  85 S7        30.12F
ABERDEEN       PTSUNNY   43  31  62 S10       30.09F
MITCHELL       CLOUDY    40  35  83 E7        30.07F
PIERRE         FAIR      49  34  56 SE10      30.00F
MOBRIDGE       FAIR      45  32  60 S13       29.99F
RAPID CITY     FAIR      64  32  30 NE8       29.88F
$$

  *****  SOME WEATHER IN NEARBY STATES *****

CITY           SKY/WX    TMP DP  RH WIND       PRES   REMARKS
GLASGOW MT     FAIR      57  26  30 NW14G25   29.89F
GREAT FALLS MT FAIR      53  19  26 W14G26    29.94F
CHEYENNE WY    FAIR      55  24  30 S16       29.97F
SCOTTSBLUFF NE FAIR      64  31  28 SW8       29.92F
OMAHA NE       LGT RAIN  43  38  82 N14       29.96S
DES MOINES IA  CLOUDY    43  40  89 NE16G23   29.93F
DAVENPORT IA   CLOUDY    46  44  93 E15       29.92F
CHICAGO IL     CLOUDY    43  41  93 NE12      30.01F FOG
EAU CLAIRE WI  CLOUDY    40  32  73 E17       30.13F
LA CROSSE WI   CLOUDY    41  35  79 NE12G20   30.08F
$$

  *****  SOME NATIONAL WEATHER *****

CITY           SKY/WX    TMP DP  RH WIND       PRES   REMARKS
LA GUARDIA NY  PTSUNNY   56  41  57 NE10      30.18F
RALEIGH NC     PTSUNNY   75  49  39 SW14      30.24F
ATLANTA GA     PTSUNNY   74  52  46 S12G23    30.17F
NEW ORLEANS LA TSTM      62  60  93 NW15G28   30.10  FOG
OKLAHOMA CITY  CLOUDY    54  42  64 NW14      29.98F
ALBUQUERQUE NM PTSUNNY   63  19  18 SW9       30.05F
SALT LAKE CITY RAIN      41  38  89 NW10      30.02F FOG
LOS ANGELES CA PTSUNNY   63  54  72 SW13      30.10F
BOISE ID       FAIR      52  36  54 NW7       30.06F
SEATTLE WA     PTSUNNY   47  38  71 SW13      30.12S
$$

*** WEATHER ACROSS MANITOBA...SASKATCHEWAN AND ONTARIO ***
                ***ONTARIO***

CITY           SKY/WX    TMP DP  RH WIND       PRES   REMARKS
GERALDTON      MOSUNNY   30  -2  24 E8        30.38F WCI  23
THUNDER BAY    MOSUNNY   32  21  64 E13       30.36F WCI  22
SIOUX LOOKOUT  CLOUDY    37  18  44 S10G18    30.23F
TORONTO        CLOUDY    37  32  81 E9G18     30.34S
BIG TROUT LK   SUNNY     28   5  37 S14       30.31F WCI  17
PICKLE LAKE    PTSUNNY   32  -4  21 SE15G21   30.28F WCI  22
DRYDEN         SUNNY     39  23  52 SE13      30.20F
KENORA         PTSUNNY   37  28  70 S12G17    30.16F
$$
                *** MANITOBA***

CITY           SKY/WX    TMP DP  RH WIND       PRES   REMARKS
BRANDON        PTSUNNY   37  30  75 S14       29.90F
DAUPHIN        SUNNY     43  32  65 SW22G32   29.83F
ISLAND LAKE    PTSUNNY   34  19  55 SE17      30.08F WCI  23
PILOT MOUND      N/A     34  32  93 S22         N/A  WCI  22
THE PAS        CLOUDY    30  28  93 SE20G26   29.70F WCI  18
THOMPSON       SNOW      19  16  86 E8        29.94F VSB 3/8 WCI   9
WINNIPEG       CLOUDY    37  32  81 S28G38    30.08F
LYNN LAKE      LGT SNOW  19  16  86 E10G18    29.87F WCI   8
CHURCHILL      CLOUDY    16   3  57 S15       30.24F WCI   1
GILLAM         CLOUDY    28   1  31 SE10      30.12F WCI  19
$$
                ***SASKATCHEWAN***

CITY           SKY/WX    TMP DP  RH WIND       PRES   REMARKS
ESTEVAN        MOSUNNY   54  39  58 SW10      29.83F
KINDERSLEY     MOSUNNY   50  34  53 W15G24    29.77S
LLOYDMINSTER   CLOUDY    36  30  80 NW10      29.75R
PRINCE ALBERT  FLURRIES  30  27  86 NW13      29.69R WCI  20
REGINA         MOSUNNY   54  36  50 W32       29.75S
YORKTON        SUNNY     46  36  66 S13       29.71S
N. BATTLEFORD  CLOUDY    36  36 100 W13G18    29.77R
LA RONGE       LGT SNOW  23  19  86 NE9       29.73S WCI  13
SASKATOON      CLOUDY    39  36  87 W21       29.74R
SWIFT CURRENT  MOSUNNY   50  34  53 W20G26    29.80S
$$
NOTE: THESE ARE AUTOMATED STATIONS WITH LIMITED QUALITY CONTROL
      "FAIR" INDICATES FEW OR NO CLOUDS BELOW 12,000 FEET WITH NO
      SIGNIFICANT WEATHER AND/OR OBSTRUCTIONS TO VISIBILITY.
      SKY/WX - SKY CONDITION AND SIGNIFICANT WEATHER.
      TMP - AIR TEMPERATURE.    DP   - DEWPOINT TEMPERATURE.
      RH  - RELATIVE HUMIDITY.  PRES - PRESSURE.
      HX  - HEAT INDEX.         WCI  - WIND CHILL INDEX.
$




USA.gov is the U.S. government's official web portal to all federal, state and local government web resources and services.